Temp
25 24 24 25 27 29 31 32 34 32 31 31 30 30 31 30 30 27 27 26 25 25 24 24 22 21 21 20 20 20 20 20 20 20 20 20 20 20 20 20 19 19 19 19 19 19 19 19 18
25 25 25 27 28 29 31 33 32 32 32 31 31 31 31 30 29 28 26 25 24 24 24 24 23 22 20 20 20 20 20 20 20 19 20 20 20 20 20 20 20 19 19 19 19 19 19 18 18
25 24 26 30 30 29 31 32 32 33 32 32 32 31 31 30 29 28 26 25 24 23 24 24 23 23 21 20 20 20 20 20 20 20 20 20 20 20 20 20 20 19 19 19 19 19 19 18 18
24 27 28 29 31 31 31 32 32 33 32 32 32 32 31 29 29 27 25 25 24 23 24 24 23 23 23 21 20 20 20 20 21 20 20 20 20 20 20 20 20 19 19 19 19 18 18 18 18
26 27 29 31 32 32 32 32 32 32 32 32 31 31 30 28 28 27 26 25 24 22 23 24 24 23 23 22 22 21 21 20 20 20 20 20 20 20 20 20 20 19 19 19 19 18 19 18 18
28 30 30 32 32 32 32 31 31 32 32 32 31 31 30 28 27 26 25 24 23 23 22 24 24 23 23 22 22 22 21 21 21 20 20 20 20 20 20 20 19 19 19 19 19 18 18 18 18
28 30 30 31 32 32 32 31 31 31 31 32 31 31 29 28 27 26 25 24 23 22 22 24 24 23 23 23 22 22 21 21 21 21 21 20 20 20 20 19 19 19 19 19 19 18 18 18 18
28 29 29 31 32 32 31 31 31 31 31 31 31 31 30 28 27 27 25 24 23 22 21 22 23 23 23 23 22 22 22 21 21 20 20 20 20 20 20 19 19 19 19 19 19 19 18 18 18
28 28 30 31 31 31 32 31 31 31 31 31 31 31 30 29 28 27 27 26 24 22 21 20 21 23 23 23 22 22 21 21 21 20 20 20 20 20 20 20 20 19 19 19 19 18 18 18 18
29 29 30 31 31 31 30 30 30 30 31 31 31 30 29 28 28 28 28 28 26 24 22 21 20 21 22 22 22 22 21 21 21 20 20 20 20 20 20 20 19 19 19 19 19 18 18 18 18
30 28 30 30 30 29 29 29 29 30 30 31 29 28 28 28 28 29 28 29 29 26 25 23 22 22 21 21 21 22 22 22 21 21 20 20 20 20 19 19 19 19 18 18 18 19 18 19 18
28 29 29 30 29 28 28 28 29 29 30 28 28 28 28 28 28 28 29 28 28 29 26 25 23 22 22 21 20 19 21 21 21 21 21 20 20 20 20 19 18 18 18 18 18 19 19 19 19
28 29 28 28 28 28 29 29 28 29 29 28 28 28 28 28 28 28 28 28 28 28 28 25 24 23 22 22 20 19 19 20 20 21 21 20 20 20 20 19 18 17 17 18 18 18 19 18 18
27 27 27 27 28 28 29 28 27 28 29 28 27 27 28 28 28 27 26 26 26 27 27 27 26 24 23 23 22 20 19 19 19 19 20 20 20 19 19 18 18 17 17 17 17 18 17 17 16
26 26 27 28 29 29 28 27 28 28 29 28 28 27 27 27 28 25 24 24 24 24 24 24 24 24 24 23 22 21 20 19 19 19 19 19 19 19 18 18 18 18 18 17 17 17 17 17 16
26 27 26 29 30 30 28 26 29 28 27 28 28 27 27 27 26 24 23 23 22 22 22 21 21 21 22 23 22 21 20 20 19 19 19 18 18 18 18 18 17 17 17 18 17 17 17 17 17
27 26 26 27 28 28 28 26 28 27 27 27 27 27 27 27 24 23 22 21 20 19 19 19 19 20 20 20 20 21 20 19 19 19 18 19 18 18 17 17 18 17 17 17 18 17 17 17 16
23 23 24 25 27 27 26 26 27 27 27 27 27 27 25 23 23 22 20 19 18 18 17 17 17 18 19 19 19 19 19 19 19 18 18 18 18 18 17 17 17 17 16 17 17 17 17 17 17
24 24 24 25 27 26 25 25 26 26 27 27 26 24 23 22 22 21 20 19 18 17 16 16 16 16 17 18 18 19 18 18 18 18 18 18 18 18 17 17 16 16 17 16 17 18 17 17 17
24 23 24 25 26 24 24 24 26 27 27 25 24 23 22 21 21 20 19 18 17 16 15 15 15 15 14 14 15 15 16 18 18 18 18 18 17 17 17 17 16 16 16 16 16 16 17 17 19
24 23 23 22 23 24 24 24 25 27 26 23 22 22 21 20 19 19 18 17 17 16 15 14 14 14 13 14 15 16 16 16 17 18 18 18 17 17 17 17 16 15 15 15 16 16 17 17 17
21 23 22 22 21 21 24 21 24 27 25 23 21 21 20 19 18 18 17 17 16 15 14 14 14 14 13 14 13 12 13 14 15 15 18 17 18 17 17 17 16 15 15 15 15 15 16 16 15
21 22 21 22 22 22 23 23 25 26 24 22 21 20 19 18 18 17 17 16 15 14 13 13 13 13 13 13 13 12 13 12 14 15 16 18 18 17 17 17 16 15 15 15 15 15 15 15 14
23 22 22 22 23 21 24 23 24 25 25 24 21 20 18 17 17 16 16 15 14 13 13 12 12 12 12 12 12 12 12 12 12 15 16 16 16 17 17 17 16 16 15 15 14 14 14 14 13
20 20 18 20 20 21 23 21 22 24 25 23 21 19 18 17 16 15 15 14 13 13 12 12 11 11 11 12 10 10 10 10 11 11 13 14 14 15 16 16 16 15 15 15 15 14 14 13 13
18 19 18 16 18 18 20 19 22 24 20 19 19 18 17 17 16 16 15 14 13 12 12 11 10 11 10 10 10 9 10 9 10 9 10 11 11 12 13 14 14 14 14 14 14 14 14 13 14
19 18 19 17 18 17 19 21 23 22 20 17 16 17 16 17 15 15 15 14 12 12 11 10 10 10 9 9 9 8 8 8 8 9 9 8 8 7 8 9 11 10 12 12 13 14 13 13 13
18 19 16 17 14 15 18 18 19 19 18 18 17 17 16 15 14 14 14 13 12 11 10 10 9 9 8 7 7 7 7 6 7 8 9 8 10 8 6 6 7 10 8 9 10 8 8 10 10
18 18 17 16 16 14 14 16 20 17 17 17 16 16 15 14 14 14 14 13 11 10 9 9 8 8 7 6 6 6 5 6 5 6 7 6 7 9 6 5 5 5 5 8 7 7 8 6 5
17 16 16 14 13 14 13 13 17 17 17 16 15 14 14 13 13 12 12 11 11 10 9 8 7 6 5 5 5 5 5 5 3 4 5 5 5 5 4 2 3 2 3 2 2 5 4 2 4
Height
1503 1502 1503 1504 1507 1489 1482 1476 1465 1474 1479 1483 1486 1485 1482 1482 1487 1503 1498 1498 1497 1499 1501 1504 1507 1509 1510 1513 1516 1518 1520 1522 1523 1526 1527 1529 1530 1531 1532 1533 1534 1535 1536 1537 1538 1539 1540 1540 1541
1503 1502 1504 1502 1502 1498 1487 1470 1477 1477 1481 1483 1483 1482 1483 1486 1490 1494 1497 1499 1497 1499 1502 1504 1507 1509 1511 1514 1516 1517 1519 1521 1523 1525 1527 1529 1531 1532 1533 1534 1535 1536 1537 1538 1539 1539 1540 1540 1541
1504 1503 1505 1492 1488 1496 1489 1477 1478 1479 1482 1483 1481 1481 1483 1488 1491 1494 1496 1498 1498 1498 1502 1503 1505 1507 1510 1512 1514 1517 1519 1521 1523 1524 1526 1528 1529 1531 1533 1534 1536 1537 1538 1539 1540 1540 1540 1541 1542
1505 1503 1500 1493 1483 1482 1483 1481 1482 1479 1479 1480 1481 1480 1482 1486 1489 1492 1494 1496 1499 1497 1500 1502 1505 1507 1508 1511 1512 1514 1517 1519 1521 1523 1525 1527 1529 1531 1532 1534 1535 1536 1537 1538 1539 1540 1541 1542 1542
1510 1504 1495 1486 1478 1480 1481 1485 1484 1482 1482 1482 1483 1482 1483 1487 1488 1488 1492 1496 1496 1497 1498 1500 1502 1505 1507 1509 1511 1513 1515 1517 1520 1522 1523 1525 1527 1528 1530 1532 1533 1535 1536 1537 1538 1539 1539 1540 1541
1508 1498 1493 1485 1481 1480 1482 1488 1485 1484 1484 1481 1483 1484 1483 1488 1489 1490 1491 1494 1496 1495 1496 1499 1501 1503 1505 1507 1509 1512 1514 1515 1517 1519 1521 1523 1525 1527 1528 1530 1531 1533 1534 1535 1536 1537 1538 1539 1539
1507 1499 1494 1486 1479 1478 1480 1487 1486 1489 1485 1482 1486 1484 1487 1488 1491 1493 1493 1495 1497 1496 1495 1497 1499 1502 1504 1505 1507 1509 1511 1513 1516 1518 1520 1521 1523 1524 1526 1527 1529 1530 1532 1533 1534 1534 1535 1536 1537
1508 1502 1499 1487 1482 1483 1482 1487 1488 1489 1488 1487 1485 1485 1488 1489 1491 1493 1494 1495 1497 1497 1496 1494 1498 1499 1501 1503 1505 1506 1509 1512 1514 1516 1518 1519 1521 1523 1524 1525 1526 1527 1528 1529 1531 1532 1533 1533 1534
1507 1506 1499 1488 1484 1482 1482 1485 1488 1487 1485 1485 1483 1483 1486 1489 1491 1492 1493 1493 1493 1495 1495 1494 1495 1495 1497 1499 1502 1504 1506 1508 1510 1512 1514 1516 1517 1519 1521 1522 1523 1524 1525 1526 1527 1528 1529 1530 1530
1504 1501 1492 1488 1488 1488 1487 1489 1489 1489 1484 1483 1483 1483 1485 1488 1490 1490 1489 1486 1484 1484 1487 1488 1490 1491 1494 1496 1497 1499 1502 1504 1505 1507 1509 1511 1513 1514 1516 1518 1520 1521 1522 1522 1523 1524 1525 1526 1525
1500 1502 1493 1492 1492 1493 1494 1494 1492 1489 1487 1484 1486 1486 1487 1489 1489 1487 1485 1482 1480 1474 1477 1479 1479 1481 1487 1491 1493 1494 1496 1498 1501 1502 1504 1506 1508 1510 1511 1512 1513 1515 1517 1517 1518 1519 1519 1520 1521
1503 1500 1498 1495 1495 1497 1496 1494 1493 1492 1487 1486 1488 1488 1488 1486 1486 1484 1481 1479 1477 1477 1470 1471 1472 1475 1476 1482 1487 1488 1490 1491 1493 1495 1498 1500 1502 1503 1505 1506 1508 1508 1510 1512 1513 1513 1515 1516 1516
1503 1499 1499 1497 1497 1495 1492 1491 1493 1489 1486 1487 1488 1488 1487 1485 1484 1481 1478 1476 1476 1476 1476 1472 1470 1471 1472 1474 1478 1482 1482 1483 1486 1488 1490 1492 1494 1495 1498 1500 1503 1503 1505 1506 1507 1508 1509 1510 1511
1505 1502 1501 1498 1493 1489 1487 1492 1493 1487 1483 1485 1486 1487 1486 1484 1482 1479 1476 1476 1475 1476 1475 1474 1470 1465 1468 1469 1472 1476 1479 1479 1478 1479 1481 1483 1486 1489 1490 1493 1496 1498 1499 1499 1500 1502 1504 1503 1506
1505 1502 1497 1491 1482 1483 1486 1490 1485 1483 1482 1481 1481 1484 1484 1483 1481 1477 1479 1478 1476 1475 1473 1471 1470 1464 1466 1466 1468 1472 1476 1478 1479 1476 1475 1475 1476 1480 1483 1485 1487 1489 1492 1496 1496 1496 1498 1500 1501
1502 1497 1497 1479 1476 1479 1481 1489 1480 1482 1481 1480 1478 1478 1480 1481 1480 1479 1480 1480 1480 1478 1474 1472 1470 1470 1468 1463 1464 1466 1469 1474 1474 1474 1474 1472 1470 1471 1474 1477 1478 1481 1485 1487 1490 1492 1493 1494 1495
1491 1499 1494 1488 1479 1480 1483 1484 1480 1482 1482 1479 1476 1475 1475 1478 1478 1482 1483 1483 1483 1481 1477 1472 1469 1467 1466 1466 1464 1461 1462 1464 1467 1468 1468 1467 1467 1466 1467 1468 1471 1473 1476 1478 1480 1483 1485 1487 1489
1511 1510 1503 1500 1490 1485 1486 1483 1480 1480 1478 1474 1472 1470 1474 1476 1481 1485 1486 1487 1486 1485 1482 1478 1472 1466 1462 1462 1462 1463 1460 1459 1458 1459 1459 1460 1461 1461 1459 1460 1462 1466 1468 1469 1470 1471 1475 1477 1478
1506 1506 1505 1497 1490 1489 1488 1484 1479 1477 1471 1466 1469 1473 1478 1481 1485 1486 1487 1488 1489 1487 1483 1479 1474 1468 1463 1459 1458 1457 1457 1456 1451 1448 1449 1451 1453 1454 1453 1451 1453 1454 1456 1456 1460 1462 1464 1468 1472
1506 1507 1503 1495 1491 1494 1491 1483 1473 1466 1461 1467 1471 1476 1480 1483 1486 1488 1491 1491 1491 1488 1484 1479 1475 1469 1464 1459 1455 1454 1452 1448 1446 1444 1440 1441 1442 1444 1445 1443 1442 1445 1446 1448 1451 1454 1456 1458 1462
1506 1507 1504 1505 1498 1495 1487 1477 1470 1461 1461 1469 1475 1480 1482 1484 1488 1492 1494 1494 1492 1488 1484 1479 1474 1470 1464 1457 1451 1446 1444 1441 1438 1435 1434 1432 1432 1433 1434 1433 1433 1434 1438 1438 1440 1443 1444 1447 1449
1516 1506 1508 1506 1506 1506 1492 1493 1474 1456 1461 1470 1477 1483 1486 1488 1489 1491 1493 1493 1491 1488 1484 1479 1474 1471 1463 1456 1449 1444 1440 1435 1431 1429 1427 1426 1421 1421 1422 1424 1423 1425 1427 1430 1431 1434 1435 1439 1439
1518 1511 1510 1504 1501 1494 1488 1487 1467 1456 1466 1473 1479 1484 1489 1490 1491 1493 1492 1493 1492 1488 1484 1480 1474 1470 1461 1456 1449 1443 1436 1430 1425 1421 1417 1415 1416 1413 1413 1413 1414 1415 1418 1420 1422 1424 1425 1426 1429
1509 1507 1504 1494 1487 1498 1477 1483 1473 1464 1466 1467 1477 1484 1489 1491 1492 1494 1494 1493 1491 1487 1484 1478 1473 1468 1459 1452 1447 1440 1432 1424 1417 1412 1409 1407 1409 1409 1407 1405 1403 1405 1406 1409 1411 1413 1413 1417 1420
1515 1517 1522 1510 1508 1501 1481 1493 1477 1466 1463 1468 1476 1485 1491 1494 1494 1495 1493 1491 1489 1485 1481 1476 1471 1465 1455 1451 1445 1438 1430 1423 1416 1409 1403 1398 1398 1398 1397 1393 1393 1393 1396 1398 1400 1401 1404 1405 1411
1526 1524 1531 1537 1524 1514 1500 1499 1481 1468 1475 1482 1487 1492 1495 1496 1495 1493 1490 1487 1485 1485 1481 1477 1472 1466 1457 1452 1446 1438 1430 1422 1416 1410 1401 1394 1394 1390 1387 1386 1385 1384 1384 1388 1389 1390 1393 1396 1399
1522 1529 1521 1528 1520 1522 1502 1478 1476 1478 1485 1494 1496 1496 1498 1497 1496 1492 1489 1486 1484 1482 1479 1475 1472 1468 1460 1451 1445 1439 1430 1423 1417 1410 1402 1397 1391 1390 1382 1384 1381 1377 1374 1377 1380 1380 1383 1384 1385
1526 1524 1534 1528 1544 1532 1509 1498 1491 1487 1493 1494 1498 1497 1496 1495 1495 1491 1488 1485 1481 1480 1477 1474 1470 1465 1460 1451 1446 1439 1431 1424 1418 1412 1406 1395 1390 1391 1391 1387 1380 1377 1363 1365 1375 1369 1379 1378 1379
1522 1522 1525 1530 1533 1534 1530 1500 1482 1488 1491 1495 1496 1496 1495 1492 1489 1485 1482 1479 1477 1477 1474 1473 1466 1462 1457 1449 1444 1438 1430 1423 1419 1413 1408 1400 1395 1393 1391 1387 1387 1378 1383 1373 1376 1374 1375 1379 1374
1525 1529 1532 1540 1538 1529 1534 1518 1496 1500 1497 1497 1496 1493 1491 1489 1486 1483 1479 1478 1476 1476 1473 1469 1461 1462 1457 1450 1442 1437 1429 1424 1419 1414 1411 1406 1402 1398 1393 1393 1394 1391 1387 1391 1385 1373 1380 1382 1381
Wind_Speed
12 11 17 14 4 7 5 5 12 13 12 10 9 5 9 21 13 5 2 7 14 14 14 15 18 22 22 21 19 16 15 13 10 10 10 10 10 8 7 7 7 7 7 6 6 5 6 6 7
12 8 9 9 6 5 5 14 14 11 10 1 3 11 7 14 15 12 9 9 14 15 16 16 18 21 22 21 19 16 15 13 12 12 11 11 10 9 8 7 6 6 6 5 5 5 5 6 6
10 8 9 7 10 3 11 13 13 9 6 9 7 5 5 9 11 6 5 14 17 17 18 17 17 19 21 22 20 17 15 13 13 14 13 12 12 11 10 8 7 7 7 6 6 5 5 5 5
9 8 10 7 5 10 11 11 10 10 4 5 5 7 8 7 8 5 9 17 19 16 19 17 18 18 19 20 21 20 18 16 16 15 15 14 14 13 11 10 9 8 8 8 7 6 6 6 6
10 8 10 13 4 6 7 12 10 8 12 12 13 10 7 12 12 10 8 17 22 18 18 19 19 19 19 19 19 20 20 19 19 18 18 17 16 15 14 13 12 11 10 10 10 9 8 8 8
10 12 12 11 11 7 3 8 12 10 13 9 7 12 8 12 11 11 10 17 21 19 20 21 22 21 21 22 21 21 20 21 21 21 20 20 19 18 17 16 15 14 13 13 12 11 11 11 11
13 12 13 16 12 3 5 5 7 9 13 11 11 10 16 15 9 6 9 13 19 21 22 20 25 24 23 23 23 23 23 22 22 22 22 21 21 20 19 18 18 17 16 16 15 15 15 14 14
10 8 14 17 9 7 12 5 8 9 12 16 7 8 10 10 5 4 6 9 17 21 23 24 23 28 28 27 26 25 25 25 25 24 24 23 22 22 21 21 20 20 19 19 18 18 18 18 17
11 9 11 11 17 10 14 8 11 13 13 16 14 8 3 8 2 3 8 12 14 20 22 25 26 30 32 31 30 29 29 28 28 27 27 26 26 26 25 25 24 23 23 22 21 21 21 20 20
5 10 13 14 12 13 17 19 20 19 24 13 18 8 12 10 16 16 16 18 24 25 26 26 27 26 34 35 34 33 32 33 32 32 31 31 30 30 29 28 28 27 25 25 25 24 24 24 25
8 11 18 15 13 14 14 18 21 20 16 20 13 16 14 15 17 19 16 24 22 31 29 31 30 29 28 35 35 37 37 37 37 36 35 35 34 33 32 30 29 28 29 30 29 29 28 28 27
7 15 17 20 15 15 15 20 17 20 20 12 12 13 15 17 19 19 21 17 25 20 32 30 33 32 30 30 31 35 36 38 41 41 40 39 38 38 37 35 32 32 30 31 33 32 31 30 29
16 15 20 20 23 22 23 13 15 24 17 6 10 15 18 19 20 21 21 17 13 16 18 27 31 34 33 31 31 32 35 35 35 38 44 44 43 42 40 38 34 34 32 29 28 32 33 29 26
19 19 20 24 26 27 15 8 17 26 20 5 7 15 20 19 21 15 16 18 16 18 21 21 25 35 33 34 33 35 36 36 35 36 36 38 43 44 44 40 38 35 33 29 28 25 25 29 26
20 19 20 23 28 3 8 14 19 21 18 22 15 20 20 24 17 12 16 21 20 22 24 20 16 30 31 32 34 34 35 35 36 37 38 39 40 39 41 44 42 41 40 34 30 28 26 23 26
19 19 15 16 1 4 9 14 16 18 28 30 25 14 13 24 16 19 18 21 23 28 28 24 24 14 19 28 31 34 35 38 31 42 37 41 44 44 41 42 45 44 42 38 37 34 33 29 31
17 12 17 16 27 22 20 24 20 25 24 27 28 25 11 12 20 24 21 22 22 27 23 27 23 18 9 9 27 34 35 36 37 36 40 41 45 47 46 46 45 44 42 41 41 42 38 35 32
14 15 14 19 19 19 20 21 18 25 27 25 25 18 9 17 19 19 20 20 21 23 23 22 23 24 20 14 7 27 34 34 35 38 43 42 44 46 50 49 47 46 43 45 44 43 43 41 37
13 15 18 18 18 18 17 20 21 25 27 23 13 17 16 15 14 17 19 20 20 23 24 22 25 24 23 21 19 19 18 30 37 38 40 43 43 44 48 53 51 49 51 51 48 48 44 41 36
15 17 17 17 17 18 20 24 22 22 5 11 10 12 10 10 13 16 18 20 21 23 27 26 25 28 29 23 19 19 26 33 32 33 40 40 44 46 47 51 54 51 52 51 49 50 49 46 41
12 13 16 19 20 19 21 20 20 21 8 15 13 8 8 12 12 14 17 20 21 25 28 31 25 28 30 32 31 26 23 23 30 32 34 39 40 44 47 52 54 52 49 52 53 52 54 52 47
10 17 18 18 18 15 16 19 18 18 14 13 12 7 9 10 11 12 16 20 23 26 29 31 30 30 32 35 35 32 27 27 23 32 34 31 40 40 46 51 53 53 51 51 51 55 57 54 46
15 14 16 19 19 20 16 11 12 10 15 11 8 7 7 9 10 12 16 20 24 28 32 33 34 30 36 38 37 36 34 30 27 27 31 34 33 36 39 48 52 50 51 50 52 51 56 57 49
10 14 19 18 14 12 17 15 11 11 15 1 11 6 7 10 14 16 22 25 28 32 34 36 35 31 36 41 42 39 40 36 32 26 25 25 32 35 38 44 52 54 53 52 52 52 49 52 49
18 14 7 4 5 9 21 14 13 18 12 10 11 11 11 13 16 20 24 28 30 34 37 41 40 39 38 41 43 41 37 32 28 27 24 25 29 30 31 35 48 51 50 50 49 50 50 46 38
14 6 4 6 9 15 19 9 9 15 20 15 10 9 12 16 16 17 21 21 24 31 32 38 42 40 39 40 41 35 29 31 28 23 20 18 18 18 24 31 33 42 46 45 45 47 47 44 38
6 7 10 9 14 12 11 23 17 19 17 21 21 19 17 22 38 41 37 27 24 27 29 31 36 39 38 39 39 33 23 23 25 24 18 15 11 13 11 14 20 12 27 28 35 38 41 42 38
11 7 6 5 5 10 11 25 11 17 21 23 11 27 35 36 33 33 35 31 24 25 27 31 33 34 40 37 38 36 21 17 16 18 19 12 18 12 13 7 2 10 3 18 23 18 15 25 24
7 8 8 10 9 11 12 13 7 26 26 19 31 32 36 36 35 36 33 25 19 23 26 30 32 38 37 31 34 33 22 17 16 15 13 15 12 14 13 12 14 16 13 8 10 18 13 16 17
7 6 5 5 13 12 12 18 23 21 24 31 33 39 36 34 37 31 26 23 22 25 25 27 32 34 32 33 33 26 20 17 13 13 13 14 11 7 8 14 13 23 20 19 21 22 20 18 20
Wind_Direction
329 328 318 302 257 223 344 86 55 51 57 48 48 1 333 57 38 62 112 131 187 193 169 168 170 166 166 168 169 171 169 166 164 165 166 167 166 164 162 157 153 148 146 142 138 134 126 121 122
333 337 288 277 256 333 37 30 42 48 50 116 187 10 30 59 43 102 123 146 184 199 175 171 173 172 173 175 176 176 180 179 182 183 180 181 183 182 184 183 177 171 167 169 169 159 149 145 139
345 341 289 225 226 286 33 29 15 26 55 4 332 338 75 57 64 78 133 150 174 198 178 175 177 176 178 181 183 186 187 191 193 191 193 194 193 194 198 199 199 196 196 197 198 191 181 177 171
342 294 256 257 29 60 33 23 7 344 1 154 19 306 111 109 103 134 144 157 176 203 180 178 182 183 182 186 188 190 194 197 199 199 200 203 203 205 207 212 213 213 214 215 217 221 217 210 206
282 275 263 260 82 83 35 8 347 349 0 351 15 337 58 101 118 126 127 168 178 200 196 184 187 189 189 191 194 196 198 202 204 205 207 209 211 211 213 216 221 225 226 228 228 226 230 232 231
291 253 285 314 108 100 111 16 318 358 338 322 13 337 85 121 120 137 141 171 186 204 212 196 197 196 197 197 199 202 206 207 209 210 213 215 216 218 219 222 225 227 230 232 235 237 238 239 241
276 301 294 318 324 324 103 19 5 342 308 13 350 323 101 99 110 142 149 178 191 209 221 214 205 205 205 206 207 207 210 214 216 217 219 221 223 224 227 228 229 231 233 236 238 239 241 242 244
298 292 293 289 279 327 102 11 347 309 331 319 285 323 24 98 114 172 185 193 196 215 222 232 218 215 212 212 213 214 217 219 222 224 226 228 231 233 233 235 236 237 237 238 239 240 244 247 248
281 274 268 320 2 359 354 349 311 307 284 303 290 222 292 48 31 222 221 207 210 214 226 240 237 224 220 218 219 220 220 222 225 228 230 231 233 236 238 239 240 240 241 242 244 244 245 247 248
276 291 295 352 342 336 336 335 325 309 303 306 301 54 27 355 321 311 274 234 214 218 217 230 241 239 226 224 224 223 225 226 226 228 231 233 235 237 240 244 245 245 244 244 245 246 246 247 249
310 312 319 323 344 343 324 310 314 318 309 312 8 351 344 323 309 305 299 289 249 232 231 220 232 243 239 227 228 230 229 230 232 232 233 235 238 240 241 245 248 245 243 243 244 244 246 248 251
307 298 303 310 335 312 296 300 312 304 297 15 349 339 325 311 303 302 303 293 294 284 229 233 220 230 241 241 230 236 236 235 235 236 236 237 239 241 241 241 242 250 251 251 246 245 248 250 253
303 313 325 316 306 294 287 298 315 306 305 326 332 327 311 308 310 308 312 303 303 300 296 231 222 223 236 236 240 231 237 244 244 244 242 240 240 242 243 241 239 245 251 254 251 247 248 248 250
303 302 299 296 287 278 289 349 302 284 277 294 313 316 313 310 308 340 16 2 359 339 329 298 245 227 230 239 240 234 229 234 246 248 249 246 243 241 244 243 237 234 235 249 256 250 245 245 252
311 290 289 284 278 342 353 302 281 325 331 315 322 310 314 306 313 36 26 6 360 352 335 0 357 225 231 242 247 242 230 237 235 247 247 249 250 245 241 242 242 236 236 226 240 247 246 239 235
279 274 276 278 241 249 253 300 302 323 321 310 299 274 293 308 19 40 26 10 0 352 334 349 343 37 244 246 253 254 250 238 239 236 243 237 244 247 245 239 240 240 237 233 222 228 230 234 229
272 317 337 336 335 332 325 311 318 318 302 300 306 305 300 306 32 26 20 11 5 356 351 340 333 333 342 260 254 257 258 257 247 241 239 242 237 242 242 243 241 237 236 234 227 224 228 229 232
341 332 319 313 322 319 315 306 310 310 303 295 285 296 33 39 25 15 15 6 1 350 347 346 344 329 316 302 326 259 258 262 263 249 246 244 240 240 241 242 240 233 230 232 229 230 230 231 234
321 313 307 300 309 319 310 309 304 298 284 283 62 57 45 34 17 14 10 4 359 348 342 355 350 335 332 330 321 291 299 272 266 266 256 245 242 241 238 241 238 233 231 231 228 230 229 227 230
308 296 299 313 324 330 312 296 287 282 308 80 71 71 53 32 22 12 2 356 356 354 352 352 355 345 340 329 307 302 304 282 274 276 265 252 243 240 240 239 238 231 230 228 225 225 225 228 235
302 306 328 324 316 303 291 298 309 305 149 106 88 77 59 45 33 12 2 357 355 358 356 352 357 350 338 332 335 322 285 292 297 279 271 261 247 242 240 241 239 233 230 228 226 223 230 230 226
320 335 321 313 311 306 316 296 300 303 127 110 98 79 48 41 28 14 3 354 353 354 350 345 357 350 332 341 343 338 325 302 299 295 277 271 255 247 242 240 239 235 231 231 228 227 231 234 228
302 330 301 299 295 293 297 275 299 356 62 106 108 90 60 39 22 8 3 355 352 353 353 348 348 353 329 336 342 339 331 316 302 290 304 262 261 248 249 242 237 236 234 230 229 229 230 231 227
283 294 314 289 263 265 279 348 324 343 349 3 135 91 53 25 13 360 356 354 349 348 349 349 350 351 328 334 341 340 337 329 319 305 293 278 262 259 257 254 237 234 237 238 235 232 235 234 230
2 335 315 317 312 299 348 331 297 317 335 18 53 56 34 9 9 358 351 352 350 347 346 344 346 348 331 332 340 344 344 333 326 324 308 285 271 255 253 241 231 232 237 239 241 235 235 234 234
311 297 302 303 326 311 313 261 304 350 62 56 47 28 4 349 341 344 347 343 349 347 345 342 344 343 331 333 340 345 354 351 334 327 327 314 302 289 259 232 223 228 234 240 241 235 230 225 215
336 303 354 298 286 281 279 291 330 33 53 27 358 339 335 329 348 349 351 348 347 343 348 350 342 341 338 332 337 337 351 358 355 342 333 329 321 342 315 272 243 217 211 209 217 223 214 209 200
223 295 321 307 302 297 305 304 290 21 355 346 319 339 336 337 325 327 331 337 342 345 351 350 349 341 334 327 335 334 333 348 354 352 349 345 356 335 10 16 125 171 104 154 166 148 152 173 172
323 274 318 318 291 287 299 280 334 335 333 331 328 330 327 323 323 324 321 320 347 351 357 356 354 336 331 328 329 332 323 327 347 348 347 360 8 350 31 53 50 63 84 122 122 135 94 106 105
20 308 287 282 299 291 297 283 296 299 328 333 330 326 332 338 333 345 357 360 355 355 359 2 345 343 347 337 337 332 324 328 350 6 4 359 2 23 61 65 75 76 76 82 82 102 115 89 112